Hollywood, FL

6:04 PM EDT on August 21, 2017 (GMT -0400)
North Perry

Weather History for KHWO - December, 2013

Change the Weather History Date:

Sunday, December 15, 2013

  Actual Average (KFLL) Record (KFLL)
Temperature  
Mean Temperature 78 °F -  
Max Temperature 84 °F 77 °F 87 °F (1963)
Min Temperature 72 °F 62 °F 37 °F (2010)
Cooling Degree Days 14    
Growing Degree Days 28 (Base 50)    
Moisture  
Dew Point 71 °F    
Average Humidity 81    
Maximum Humidity 93    
Minimum Humidity 61    
Precipitation  
Precipitation 0.00 in - - ()
Sea Level Pressure  
Sea Level Pressure 30.02 in    
Wind  
Wind Speed 7 mph (SW)    
Max Wind Speed 16 mph    
Max Gust Speed 24 mph    
Visibility 10 miles    
Events      
Averages and records for this station are not official NWS values.
T = Trace of Precipitation, MM = Missing Value Source: NWS Daily Summary

Daily Weather History Graph

Daily Weather History Graph

Search for Another Location

Airport or City:

Trip Planner

Search our weather history database for the weather conditions in past years. The results will help you decide how hot, cold, wet, or windy it might be!

Date:

Astronomy

Dec. 15, 2013 Rise Set
Actual Time 7:00 AM EST 5:32 PM EST
Civil Twilight 6:35 AM EST 5:57 PM EST
Nautical Twilight 6:06 AM EST 6:26 PM EST
Astronomical Twilight 5:38 AM EST 6:54 PM EST
Moon 4:29 PM EST (12/15) 5:22 AM EST (12/15)
Length of Visible Light 11h 21m
Length of Day
10h 31m
Waxing Gibbous, 97% of the Moon is Illuminated
Dec 15
Waxing Gibbous
Dec 17
Full
Dec 25
Last Quarter
Jan 1
New
Jan 7
First Quarter

Hourly Weather History & Observations

Time (EST) Temp. Heat Index Dew Point Humidity Pressure Visibility Wind Dir Wind Speed Gust Speed Precip Events Conditions
12:53 AM 75.0 °F - 71.1 °F 87% 30.02 in 10.0 mi South 4.6 mph - N/A   Clear
1:53 AM 75.9 °F - 71.1 °F 85% 30.00 in 10.0 mi South 6.9 mph - N/A   Clear
2:53 AM 75.0 °F - 72.0 °F 90% 29.99 in 10.0 mi South 5.8 mph - N/A   Clear
3:53 AM 75.0 °F - 72.0 °F 90% 29.98 in 10.0 mi South 5.8 mph - N/A   Clear
4:53 AM 73.9 °F - 72.0 °F 93% 29.98 in 10.0 mi South 4.6 mph - N/A   Clear
5:53 AM 73.9 °F - 72.0 °F 93% 29.99 in 10.0 mi South 4.6 mph - N/A   Clear
6:53 AM 75.0 °F - 72.0 °F 90% 29.99 in 10.0 mi South 5.8 mph - N/A   Clear
7:53 AM 75.9 °F - 73.0 °F 91% 30.00 in 10.0 mi South 5.8 mph - N/A   Clear
8:53 AM 79.0 °F - 73.9 °F 84% 30.04 in 10.0 mi SSW 10.4 mph - N/A   Clear
9:53 AM 81.0 °F 85.8 °F 73.0 °F 77% 30.04 in 10.0 mi SSW 11.5 mph - N/A   Mostly Cloudy
10:32 AM 82.4 °F 88.2 °F 73.4 °F 74% 30.04 in 10.0 mi SW 11.5 mph - N/A   Scattered Clouds
10:53 AM 82.9 °F 88.8 °F 73.0 °F 72% 30.04 in 10.0 mi SSW 12.7 mph - N/A   Mostly Cloudy
11:05 AM 82.4 °F 87.2 °F 71.6 °F 70% 30.03 in 10.0 mi SSW 15.0 mph - N/A   Mostly Cloudy
11:13 AM 82.4 °F 87.2 °F 71.6 °F 70% 30.03 in 10.0 mi SSW 13.8 mph - N/A   Scattered Clouds
11:53 AM 82.9 °F 88.0 °F 72.0 °F 69% 30.01 in 10.0 mi SW 13.8 mph - N/A   Scattered Clouds
12:53 PM 84.9 °F 90.1 °F 71.1 °F 63% 29.99 in 10.0 mi SW 16.1 mph - N/A   Mostly Cloudy
1:53 PM 84.9 °F 89.4 °F 70.0 °F 61% 29.97 in 10.0 mi SW 13.8 mph 24.2 mph N/A   Scattered Clouds
2:53 PM 82.0 °F 85.5 °F 69.1 °F 65% 29.96 in 10.0 mi WSW 13.8 mph - N/A   Clear
3:53 PM 80.1 °F 83.2 °F 70.0 °F 71% 29.97 in 10.0 mi WNW 9.2 mph - N/A   Clear
4:53 PM 79.0 °F - 71.1 °F 77% 29.98 in 10.0 mi WSW 8.1 mph - N/A   Clear
5:53 PM 77.0 °F - 69.1 °F 76% 29.99 in 10.0 mi WSW 6.9 mph - N/A   Clear
6:53 PM 75.9 °F - 70.0 °F 82% 30.02 in 10.0 mi WSW 5.8 mph - N/A   Clear
7:33 PM 75.2 °F - 69.8 °F 83% 30.04 in 10.0 mi West 5.8 mph - N/A   Mostly Cloudy
7:40 PM 75.2 °F - 69.8 °F 83% 30.04 in 10.0 mi WNW 3.5 mph - N/A   Scattered Clouds
7:53 PM 75.0 °F - 70.0 °F 84% 30.04 in 10.0 mi West 4.6 mph - N/A   Scattered Clouds
8:53 PM 73.9 °F - 70.0 °F 87% 30.06 in 10.0 mi NW 4.6 mph - N/A   Clear
9:53 PM 73.0 °F - 70.0 °F 90% 30.08 in 10.0 mi NW 3.5 mph - N/A   Scattered Clouds
10:09 PM 73.4 °F - 69.8 °F 88% 30.07 in 10.0 mi NW 4.6 mph - N/A   Mostly Cloudy
10:24 PM 73.4 °F - 69.8 °F 88% 30.07 in 10.0 mi WNW 4.6 mph - N/A   Scattered Clouds
10:53 PM 73.0 °F - 70.0 °F 90% 30.08 in 10.0 mi NW 5.8 mph - N/A   Mostly Cloudy
11:53 PM 72.0 °F - 70.0 °F 93% 30.08 in 10.0 mi NW 8.1 mph - N/A   Mostly Cloudy